Regional Weather Roundup
Issued by NWS

Home | Current Version | Previous Version | Graphics & Text | Print | Product List | Glossary On
Versions: 1 2 3 4 5 6 7 8 9 10 11 12 13 14 15 16 17 18 19 20 21 22 23 24 25 26 27 28 29 30 31 32 33 34 35 36 37 38 39 40 41 42 43 44 45 46 47 48 49 50
807
ASUS43 KBIS 200502
RWRND

NORTH DAKOTA REGIONAL WEATHER ROUNDUP
NATIONAL WEATHER SERVICE BISMARCK ND
1200 AM CDT WED SEP 20 2017

NOTE: "FAIR" INDICATES FEW OR NO CLOUDS BELOW 12,000 FEET WITH NO
SIGNIFICANT WEATHER AND/OR OBSTRUCTIONS TO VISIBILITY.


NDZ001>003-009>011-017-200600-
NORTHWEST NORTH DAKOTA

CITY           SKY/WX    TMP DP  RH WIND       PRES   REMARKS
WILLISTON      PTCLDY    51  41  68 W9        29.57S
MINOT          LGT RAIN  55  45  68 W9        29.54R
MINOT AFB      LGT RAIN  52  49  90 NW3       29.52R
$$

NDZ018>021-031>035-040>046-200600-
SOUTHWEST NORTH DAKOTA

CITY           SKY/WX    TMP DP  RH WIND       PRES   REMARKS
BISMARCK       CLOUDY    55  32  41 W12       29.59R
DICKINSON      CLEAR     43  41  93 W10       29.61S
GARRISON         N/A     50  46  86 W10       29.55R
HETTINGER ARPT CLEAR     43  40  89 W8        29.67S
$$

NDZ004>008-012>016-024-026-027-054-200600-
NORTHEAST NORTH DAKOTA

CITY           SKY/WX    TMP DP  RH WIND       PRES   REMARKS
GRAND FORKS    LGT RAIN  66  64  93 SW9       29.42R
GRND FRKS AFB  DRIZZLE   64  64 100 SW6       29.44F
DEVILS LAKE    CLOUDY    57  55  93 W8        29.48F
$$

NDZ022-023-025-028>030-036>039-047>053-200600-
SOUTHEAST NORTH DAKOTA

CITY           SKY/WX    TMP DP  RH WIND       PRES   REMARKS
FARGO          CLOUDY    62  62 100 E8        29.46R
JAMESTOWN      CLOUDY    58  54  86 W6        29.51F
$$





USA.gov is the U.S. government's official web portal to all federal, state and local government web resources and services.